, FL

(GMT )
Crestview

Weather History for KEGI - November, 2012

Change the Weather History Date:

Saturday, November 24, 2012

  Actual Average Record
Temperature  
Mean Temperature 50 °F -  
Max Temperature 60 °F - - ()
Min Temperature 39 °F - - ()
Degree Days  
Heating Degree Days 16    
Moisture  
Dew Point 33 °F    
Average Humidity 56    
Maximum Humidity 87    
Minimum Humidity 25    
Precipitation  
Precipitation 0.00 in - - ()
Sea Level Pressure  
Sea Level Pressure 30.18 in    
Wind  
Wind Speed 9 mph (NNW)    
Max Wind Speed 15 mph    
Max Gust Speed 20 mph    
Visibility 10 miles    
Events      
T = Trace of Precipitation, MM = Missing Value Source: NWS Daily Summary

Daily Weather History Graph

Daily Weather History Graph

Search for Another Location

Airport or City:

Trip Planner

Search our weather history database for the weather conditions in past years. The results will help you decide how hot, cold, wet, or windy it might be!

Date:

Astronomy

Nov. 24, 2012 Rise Set
Actual Time 6:20 AM CST 4:45 PM CST
Civil Twilight 5:54 AM CST 5:11 PM CST
Nautical Twilight 5:24 AM CST 5:40 PM CST
Astronomical Twilight 4:55 AM CST 6:09 PM CST
Moon 2:19 PM CST (11/24) 2:48 AM CST (11/24)
Length of Visible Light 11h 16m
Length of Day
10h 24m
Waxing Gibbous, 87% of the Moon is Illuminated
Nov 24
Waxing Gibbous
Nov 28
Full
Dec 6
Last Quarter
Dec 13
New
Dec 19
First Quarter

Hourly Weather History & Observations

Time (CST) Temp. Windchill Dew Point Humidity Pressure Visibility Wind Dir Wind Speed Gust Speed Precip Events Conditions
12:55 AM 54.3 °F - 50.5 °F 87% 30.14 in 10.0 mi NW 8.1 mph - N/A   Clear
1:55 AM 54.3 °F - 49.1 °F 83% 30.14 in 10.0 mi NNW 6.9 mph - N/A   Clear
2:55 AM 52.7 °F - 45.0 °F 75% 30.14 in 10.0 mi NNW 12.7 mph - N/A   Clear
3:55 AM 50.0 °F - 42.3 °F 75% 30.15 in 10.0 mi NNW 11.5 mph - N/A   Clear
4:55 AM 48.0 °F - 40.1 °F 74% 30.18 in 10.0 mi NNW 11.5 mph - N/A   Clear
5:55 AM 45.9 °F 41.7 °F 38.3 °F 75% 30.20 in 10.0 mi NNW 8.1 mph - N/A   Clear
6:55 AM 44.1 °F 40.1 °F 37.0 °F 76% 30.23 in 10.0 mi NNW 6.9 mph - N/A   Clear
7:55 AM 46.9 °F - 36.3 °F 67% 30.24 in 10.0 mi NNW 10.4 mph - N/A   Clear
8:55 AM 50.5 °F - 35.6 °F 57% 30.24 in 10.0 mi North 12.7 mph - N/A   Clear
9:55 AM 53.1 °F - 33.8 °F 48% 30.24 in 10.0 mi NNW 10.4 mph - N/A   Clear
10:55 AM 56.1 °F - 33.4 °F 42% 30.22 in 10.0 mi NNW 11.5 mph - N/A   Clear
11:55 AM 58.3 °F - 26.8 °F 30% 30.18 in 10.0 mi North 15.0 mph 19.6 mph N/A   Clear
12:55 PM 60.4 °F - 27.0 °F 28% 30.16 in 10.0 mi NNW 11.5 mph - N/A   Clear
1:55 PM 60.6 °F - 25.2 °F 26% 30.14 in 10.0 mi North 11.5 mph - N/A   Clear
2:55 PM 60.3 °F - 24.3 °F 25% 30.14 in 10.0 mi North 10.4 mph - N/A   Clear
3:55 PM 58.8 °F - 25.3 °F 28% 30.14 in 10.0 mi NNW 9.2 mph - N/A   Clear
4:55 PM 52.5 °F - 27.5 °F 38% 30.15 in 10.0 mi North 5.8 mph - N/A   Clear
5:55 PM 47.3 °F - 28.4 °F 48% 30.17 in 10.0 mi Calm Calm - N/A   Clear
6:55 PM 43.0 °F 41.3 °F 29.7 °F 59% 30.18 in 10.0 mi NNW 3.5 mph - N/A   Clear
7:55 PM 41.9 °F 39.0 °F 29.5 °F 61% 30.19 in 10.0 mi NNW 4.6 mph - N/A   Clear
8:55 PM 39.7 °F 33.7 °F 28.9 °F 65% 30.19 in 10.0 mi North 9.2 mph - N/A   Clear
9:55 PM 41.4 °F 36.8 °F 28.9 °F 61% 30.19 in 10.0 mi North 6.9 mph - N/A   Clear
10:55 PM 39.7 °F 34.3 °F 27.3 °F 61% 30.17 in 10.0 mi North 8.1 mph - N/A   Clear
11:55 PM 39.0 °F 36.8 °F 26.4 °F 61% 30.17 in 10.0 mi North 3.5 mph - N/A   Clear